[[{"header":{"parameterUnit":"m.s-1","parameterCategory":1,"la1":30.2991,"la2":30.254,"lo1":-89.0895,"lo2":-89.0444,"dy":0.0017,"dx":0.0017,"nx":28,"ny":28,"refTime":"2023-10-25T03:00:00:Z","depth":0,"parameterNumber":2,"parameterNumberName":"U-component_of_WINDS"},"data":[0,0,0,0,0,0,0,0,0,0,0,0,0,0,0,0,0,0,0,0,0,0,0,0,0,0,0,0,0,0,0,0,0,0,0,0,0,0,0,0,0,0,0,0,0,0,0,0,0,0,0,0,0,0,0,0,0,0,-6.2945,-6.2945,0,-6.2935,-6.2935,-6.2934,-6.2789,-6.2786,-6.2782,-6.2779,-6.2767,-6.277,-6.2773,0,0,0,0,0,0,0,0,0,0,0,0,0,-6.2842,-6.2845,-6.2945,-6.2945,-6.2945,-6.2935,-6.2935,-6.2934,-6.279,-6.2786,-6.2781,-6.2777,-6.2766,-6.2769,-6.2773,0,0,0,0,0,0,0,0,0,0,0,0,0,-6.2865,-6.2846,-6.2945,-6.2872,-6.2865,-6.2935,-6.2934,-6.2934,-6.2791,-6.2785,-6.278,-6.2775,-6.2765,-6.2769,-6.2774,-6.2913,0,0,-6.2788,-6.279,0,0,0,0,0,0,0,0,-6.2864,-6.2869,-6.2883,-6.2877,-6.287,-6.2858,-6.2894,-6.2927,-6.2792,-6.2819,-6.2778,-6.2772,-6.2802,-6.2803,-6.2813,-6.2912,-6.2912,-6.2788,-6.2791,-6.2793,-6.2795,0,0,0,0,0,0,0,-6.2863,-6.2869,-6.2941,-6.2883,-6.2875,-6.284,-6.2837,-6.2899,-6.2841,-6.2816,-6.2806,-6.2807,-6.2797,-6.2809,-6.2811,-6.2911,-6.2788,-6.2792,-6.2795,-6.2797,-6.3125,-6.3131,0,0,0,0,0,0,-6.2871,-6.2868,-6.2941,-6.2941,-6.2853,-6.2846,-6.2843,-6.2867,-6.284,-6.2831,-6.2811,-6.28,-6.2803,-6.2806,-6.281,-6.297,-6.2793,-6.2798,-6.28,-6.312,-6.3127,-6.3133,0,0,0,0,0,0,-6.287,-6.2879,-6.2942,-6.2902,-6.2907,-6.2854,-6.2882,-6.287,-6.2881,-6.2836,-6.2825,-6.2834,-6.2799,-6.2804,-6.2889,-6.2968,-6.28,-6.2804,-6.3113,-6.3122,-6.313,-6.3293,0,0,0,0,0,0,-6.2867,-6.2879,-6.2931,-6.2904,-6.291,-6.302,-6.2887,-6.2874,-6.289,-6.2875,-6.2855,-6.2846,-6.2795,-6.2882,-6.2893,-6.2971,-6.2808,-6.3105,-6.3117,-6.3127,-6.328,-6.3306,-6.3329,0,0,0,0,0,-6.2864,-6.2977,-6.2934,-6.2944,-6.2973,-6.3025,-6.3028,-6.2967,-6.2897,-6.2948,-6.292,-6.2847,-6.2959,-6.2892,-6.2903,-6.2984,-6.31,-6.3113,-6.3126,-6.3269,-6.3301,-6.3328,0,0,0,0,0,0,-6.3013,-6.2971,-6.2924,-6.3031,-6.3033,-6.3,-6.3063,-6.3003,-6.3024,-6.3009,-6.2933,-6.293,-6.3027,-6.3014,-6.2941,-6.3118,-6.3017,-6.3033,-6.3121,-6.3151,-6.3175,-6.3174,-6.2811,0,0,0,0,0,-6.3059,-6.3104,-6.3066,-6.3164,-6.3168,-6.3116,-6.3136,-6.309,-6.3088,-6.3088,-6.3065,-6.3067,-6.3102,-6.3127,-6.3157,-6.3279,-6.3273,-6.3341,-6.3365,-6.3385,-6.3399,-6.3463,-6.3492,-6.3177,-6.3177,-6.3177,0,0,-6.3152,-6.3135,-6.3168,-6.3194,-6.3189,-6.3238,-6.3117,-6.3173,-6.3209,-6.3096,-6.3174,-6.3159,-6.3155,-6.326,-6.3305,-6.3252,-6.3486,-6.3402,-6.3419,-6.3421,-6.348,-6.351,-6.3536,-6.3186,-6.3184,-6.3183,0,0,-6.3347,-6.334,-6.3421,-6.342,-6.3416,-6.3381,-6.3402,-6.3379,-6.3365,-6.3443,-6.3359,-6.3402,-6.3464,-6.3465,-6.3474,-6.3676,-6.3608,-6.3688,-6.3813,-6.3876,-6.3901,-6.3923,-6.3993,-6.4019,-6.3703,-6.3703,-6.3703,0,-6.3463,-6.3533,-6.347,-6.3532,-6.3546,-6.3449,-6.3531,-6.3533,-6.354,-6.3551,-6.3494,-6.3572,-6.3563,-6.3666,-6.3716,-6.3727,-6.3747,-6.3687,-6.3903,-6.3924,-6.3943,-6.4009,-6.4036,-6.3713,-6.3712,-6.3711,-6.371,0,-6.3676,-6.3727,-6.3793,-6.3802,-6.3824,-6.3896,-6.3844,-6.3875,-6.3829,-6.3801,-6.3883,-6.3869,-6.3895,-6.3918,-6.3872,-6.4015,-6.3983,-6.3916,-6.3812,-6.3984,-6.4044,-6.4069,-6.3726,-6.3723,-6.372,-6.3718,0,0,-6.3958,-6.3935,-6.396,-6.3964,-6.3955,-6.3992,-6.4062,-6.4088,-6.4115,-6.4125,-6.418,-6.4238,-6.4176,-6.4187,-6.4142,-6.4198,-6.4358,-6.4124,-6.4123,-6.4166,-6.4513,-6.4561,-6.4592,-6.4316,-6.432,-6.4324,-6.4513,0,-6.4144,-6.4259,-6.4207,-6.4328,-6.4374,-6.4285,-6.4346,-6.4347,-6.4325,-6.4361,-6.4336,-6.4378,-6.4295,-6.43,-6.4353,-6.4327,-6.4426,-6.4314,-6.4365,-6.4367,-6.4364,-6.4624,-6.4674,-6.4852,-6.4536,-6.4541,-6.4543,0,-6.4374,-6.4395,-6.4521,-6.4506,-6.4523,-6.4578,-6.4599,-6.4636,-6.4637,-6.4616,-6.4631,-6.4574,-6.4641,-6.4543,-6.4634,-6.4559,-6.4578,-6.457,-6.4575,-6.4574,-6.4463,-6.4627,-6.4908,-6.4934,-6.4581,-6.4578,-6.4575,0,-6.4565,-6.4624,-6.4707,-6.4714,-6.4698,-6.4739,-6.4735,-6.4731,-6.4751,-6.4771,-6.4783,-6.4811,-6.4825,-6.4848,-6.4801,-6.4733,-6.4899,-6.4796,-6.4883,-6.4884,-6.4917,-6.4915,-6.5203,-6.4937,-6.4937,-6.4936,-6.4935,0,-6.4775,-6.4855,-6.4793,-6.4843,-6.4931,-6.4872,-6.4961,-6.4947,-6.4945,-6.4992,-6.4919,-6.4964,-6.4901,-6.4941,-6.4905,-6.4986,-6.4994,-6.4979,-6.4968,-6.4983,-6.4985,-6.4991,-6.4976,-6.4943,-6.4941,-6.494,-6.4939,0,-6.5,-6.4961,-6.5046,-6.5026,-6.5024,-6.5089,-6.5072,-6.5119,-6.5094,-6.5154,-6.5165,-6.5126,-6.5169,-6.5126,-6.5167,-6.5143,-6.5251,-6.5223,-6.525,-6.5241,-6.533,-6.5321,-6.5628,-6.5665,-6.5379,-6.5382,-6.5384,0,-6.5134,-6.5194,-6.5182,-6.5209,-6.5209,-6.5253,-6.5274,-6.522,-6.5245,-6.5254,-6.5299,-6.5337,-6.5364,-6.5438,-6.5413,-6.5444,-6.5415,-6.5521,-6.5419,-6.5433,-6.5413,-6.5409,-6.5414,-6.554,-6.5543,-6.5546,-6.5548,0,-6.5377,-6.5356,-6.5389,-6.5417,-6.5445,-6.5464,-6.5477,-6.5504,-6.5448,-6.5481,-6.5525,-6.5546,-6.559,-6.5628,-6.5653,-6.5648,-6.5589,-6.5582,-6.5603,-6.5617,-6.5629,-6.5622,-6.5303,-6.5574,-6.5571,-6.5569,-6.5568,-6.5567,-6.5558,-6.5607,-6.5607,-6.5647,-6.5653,-6.5668,-6.5711,-6.5693,-6.573,-6.576,-6.5728,-6.5782,-6.5784,-6.5811,-6.5815,-6.5857,-6.5812,-6.5843,-6.5851,-6.5858,-6.587,-6.5627,-6.5862,-6.5861,-6.586,-6.5859,-6.5859,0,-6.5793,-6.5791,-6.5829,-6.5851,-6.5884,-6.5829,-6.5842,-6.5873,-6.5921,-6.5929,-6.5959,-6.6011,-6.6049,-6.6029,-6.6062,-6.61,-6.6074,-6.611,-6.6104,-6.6104,-6.5909,-6.5886,-6.613,-6.613,-6.613,-6.613,-6.613,-6.613,-6.592,-6.6,-6.5981,-6.6064,-6.6061,-6.6114,-6.6126,-6.614,-6.6146,-6.6208,-6.624,-6.6228,-6.6225,-6.6258,-6.6291,-6.6284,-6.6298,-6.6344,-6.6327,-6.6145,-6.6118,-6.6092,-6.607,-6.6348,-6.6349,-6.6518,-6.6519,-6.652]},{"header":{"parameterUnit":"m.s-1","parameterCategory":1,"la1":30.2991,"la2":30.254,"lo1":-89.0895,"lo2":-89.0444,"dy":0.0017,"dx":0.0017,"nx":28,"ny":28,"refTime":"2023-10-25T03:00:00:Z","depth":0,"parameterNumber":3,"parameterNumberName":"V-component_of_WINDS"},"data":[0,0,0,0,0,0,0,0,0,0,0,0,0,0,0,0,0,0,0,0,0,0,0,0,0,0,0,0,0,0,0,0,0,0,0,0,0,0,0,0,0,0,0,0,0,0,0,0,0,0,0,0,0,0,0,0,0,0,1.1227,1.1227,0,1.1242,1.1242,1.1242,1.1254,1.1254,1.1255,1.1255,1.1267,1.1267,1.1267,0,0,0,0,0,0,0,0,0,0,0,0,0,1.1207,1.1208,1.1227,1.1227,1.1227,1.1242,1.1242,1.1242,1.1254,1.1254,1.1255,1.1255,1.1267,1.1267,1.1267,0,0,0,0,0,0,0,0,0,0,0,0,0,1.1218,1.1208,1.1227,1.1235,1.1236,1.1242,1.1242,1.1242,1.1254,1.1254,1.1255,1.1255,1.1266,1.1267,1.1267,1.1265,0,0,1.1268,1.1268,0,0,0,0,0,0,0,0,1.1218,1.1219,1.1234,1.1234,1.1235,1.1247,1.124,1.125,1.1254,1.1247,1.1255,1.1255,1.126,1.126,1.1263,1.1266,1.1266,1.1268,1.1268,1.1268,1.1268,0,0,0,0,0,0,0,1.1217,1.1218,1.1233,1.1234,1.1235,1.1238,1.1239,1.1242,1.1252,1.1248,1.1249,1.1251,1.126,1.1262,1.1263,1.1266,1.1268,1.1268,1.1268,1.1269,1.1272,1.1272,0,0,0,0,0,0,1.1215,1.1218,1.1232,1.1233,1.1227,1.1238,1.124,1.1243,1.1252,1.1254,1.125,1.1251,1.1262,1.1263,1.1264,1.1264,1.1268,1.1269,1.1269,1.1272,1.1272,1.1272,0,0,0,0,0,0,1.1215,1.1216,1.1232,1.1226,1.1228,1.1238,1.1241,1.1243,1.1245,1.1254,1.1256,1.1251,1.1262,1.1263,1.1266,1.1264,1.1269,1.1269,1.1272,1.1272,1.1272,1.1263,0,0,0,0,0,0,1.1214,1.1216,1.1215,1.1226,1.1228,1.1233,1.1241,1.1243,1.1246,1.1247,1.1255,1.1256,1.1262,1.1265,1.1266,1.1265,1.1269,1.1272,1.1272,1.1272,1.1264,1.1263,1.1262,0,0,0,0,0,1.1213,1.1211,1.1215,1.1217,1.1228,1.1233,1.1235,1.1242,1.1246,1.1246,1.1252,1.1256,1.1265,1.1265,1.1266,1.1265,1.1272,1.1272,1.1272,1.1264,1.1263,1.1262,0,0,0,0,0,0,1.1197,1.1212,1.1217,1.1218,1.1225,1.1235,1.1235,1.1241,1.1245,1.1246,1.1255,1.1256,1.1258,1.1262,1.1262,1.1266,1.1269,1.1269,1.1263,1.1262,1.1261,1.126,1.127,0,0,0,0,0,1.1195,1.1199,1.1211,1.121,1.1214,1.1224,1.1226,1.1233,1.1239,1.1242,1.1248,1.1253,1.1258,1.126,1.1264,1.1265,1.1267,1.1265,1.1264,1.1263,1.1263,1.1266,1.1265,1.1271,1.1271,1.1271,0,0,1.1187,1.1196,1.1197,1.1208,1.1213,1.1218,1.1226,1.1229,1.1232,1.1242,1.1245,1.125,1.1257,1.126,1.1261,1.1263,1.1263,1.1263,1.1262,1.1262,1.1266,1.1265,1.1265,1.1271,1.1271,1.1271,0,0,1.1177,1.1183,1.1185,1.1192,1.1202,1.1209,1.121,1.1221,1.1225,1.1229,1.1237,1.1241,1.1248,1.1253,1.1257,1.1254,1.1258,1.1255,1.125,1.1253,1.1252,1.1252,1.1252,1.1252,1.1254,1.1254,1.1254,0,1.1166,1.1174,1.1185,1.1189,1.1194,1.1205,1.1207,1.1213,1.1223,1.1226,1.1229,1.124,1.1245,1.125,1.125,1.1252,1.1253,1.1253,1.1252,1.1252,1.1251,1.1252,1.1251,1.1254,1.1254,1.1254,1.1254,0,1.1161,1.1167,1.1167,1.1179,1.1184,1.1187,1.1199,1.1202,1.1209,1.1216,1.1222,1.123,1.1237,1.1239,1.1243,1.1245,1.1246,1.125,1.1254,1.125,1.1251,1.1251,1.1253,1.1253,1.1254,1.1254,0,0,1.1138,1.116,1.1159,1.1167,1.118,1.1184,1.1189,1.1198,1.1202,1.1209,1.1214,1.1221,1.1226,1.1231,1.1237,1.124,1.1239,1.1244,1.1244,1.1243,1.1243,1.124,1.124,1.1243,1.1243,1.1243,1.1243,0,1.113,1.114,1.1152,1.1157,1.1163,1.1176,1.1181,1.119,1.1198,1.1204,1.1212,1.1218,1.1223,1.1227,1.123,1.1238,1.1239,1.1238,1.1247,1.1247,1.1245,1.124,1.1236,1.1235,1.1243,1.1243,1.1243,0,1.1121,1.1131,1.1138,1.1155,1.1157,1.1161,1.1172,1.1178,1.1189,1.1195,1.1202,1.121,1.1216,1.1221,1.123,1.123,1.1234,1.1239,1.124,1.124,1.1244,1.1241,1.1235,1.1235,1.1243,1.1243,1.1243,0,1.1105,1.112,1.1127,1.1132,1.1151,1.1154,1.1162,1.1174,1.118,1.1189,1.1193,1.1203,1.1208,1.1216,1.1227,1.1228,1.1235,1.124,1.1241,1.1241,1.1241,1.124,1.1236,1.1243,1.1243,1.1243,1.1243,0,1.1095,1.1099,1.1121,1.1124,1.113,1.1145,1.1149,1.1158,1.117,1.1176,1.1187,1.1193,1.1207,1.1215,1.1223,1.1231,1.1233,1.1238,1.124,1.1237,1.1237,1.124,1.124,1.1243,1.1243,1.1243,1.1243,0,1.1077,1.1092,1.11,1.1119,1.1124,1.1127,1.1143,1.1148,1.1159,1.1167,1.117,1.1185,1.1195,1.1207,1.122,1.1226,1.1233,1.1236,1.123,1.1231,1.1232,1.1232,1.1229,1.123,1.1236,1.1236,1.1236,0,1.1069,1.1073,1.1094,1.11,1.1108,1.1117,1.1125,1.114,1.1147,1.1163,1.1166,1.1177,1.1187,1.1203,1.1215,1.1226,1.1229,1.1228,1.1231,1.1229,1.1231,1.123,1.1232,1.1227,1.1227,1.1226,1.1226,0,1.1055,1.1063,1.1073,1.1088,1.1096,1.1108,1.1119,1.1123,1.1141,1.1149,1.116,1.1168,1.1184,1.1195,1.1209,1.1217,1.1225,1.1226,1.1227,1.1223,1.122,1.1223,1.1228,1.1225,1.1225,1.1225,1.1226,1.1226,1.1042,1.1048,1.1064,1.1076,1.1087,1.1099,1.1106,1.1118,1.1129,1.1144,1.1152,1.1164,1.1178,1.1197,1.1206,1.1215,1.1218,1.1219,1.1219,1.1219,1.1219,1.1219,1.1217,1.1217,1.1217,1.1218,1.1218,0,1.1029,1.1042,1.1053,1.1071,1.1081,1.109,1.1104,1.1112,1.1123,1.1136,1.1147,1.1162,1.1174,1.1189,1.1202,1.1207,1.1212,1.121,1.121,1.1212,1.1215,1.1213,1.1207,1.1207,1.1207,1.1207,1.1207,1.1207,1.1024,1.1034,1.1045,1.1061,1.1073,1.1086,1.1094,1.1106,1.1117,1.1133,1.1145,1.1155,1.1169,1.1185,1.1197,1.1201,1.1206,1.1203,1.1209,1.1211,1.1212,1.1212,1.1211,1.1204,1.1204,1.1205,1.1205,1.1205]}]]